Abilene, TX

4:31 AM CDT on September 26, 2016 (GMT -0500)
Dyess Air Force Base

Weather History for KDYS - November, 2013

Change the Weather History Date:

Thursday, November 21, 2013

  Actual Average Record
Temperature  
Mean Temperature 56 °F -  
Max Temperature 78 °F 62 °F 80 °F (2003)
Min Temperature 33 °F 42 °F 25 °F (2008)
Degree Days  
Heating Degree Days 10    
Growing Degree Days 6 (Base 50)    
Moisture  
Dew Point 53 °F    
Average Humidity 77    
Maximum Humidity 88    
Minimum Humidity 56    
Precipitation  
Precipitation 0.01 in - - ()
Sea Level Pressure  
Sea Level Pressure 29.99 in    
Wind  
Wind Speed 13 mph (SSE)    
Max Wind Speed 29 mph    
Max Gust Speed 34 mph    
Visibility 10 miles    
Events Rain    
Averages and records for this station are not official NWS values.
T = Trace of Precipitation, MM = Missing Value Source: NWS Daily Summary

Daily Weather History Graph

Daily Weather History Graph

Search for Another Location

Airport or City:

Trip Planner

Search our weather history database for the weather conditions in past years. The results will help you decide how hot, cold, wet, or windy it might be!

Date:

Astronomy

Nov. 21, 2013 Rise Set
Actual Time 7:14 AM CST 5:35 PM CST
Civil Twilight 6:48 AM CST 6:02 PM CST
Nautical Twilight 6:18 AM CST 6:32 PM CST
Astronomical Twilight 5:48 AM CST 7:01 PM CST
Moon 9:12 PM CST (11/21) 10:23 AM CST (11/21)
Length of Visible Light 11h 14m
Length of Day
10h 21m
Waning Gibbous, 85% of the Moon is Illuminated
Nov 21
Waning Gibbous
Nov 25
Last Quarter
Dec 2
New
Dec 9
First Quarter
Dec 17
Full

Hourly Weather History & Observations

Time (CST) Temp. Windchill Dew Point Humidity Pressure Visibility Wind Dir Wind Speed Gust Speed Precip Events Conditions
12:58 AM 66.7 °F - 60.4 °F 80% 29.79 in 10.0 mi South 17.3 mph - N/A   Overcast
1:58 AM 66.2 °F - 60.4 °F 82% 29.79 in 10.0 mi South 18.4 mph - N/A   Mostly Cloudy
2:58 AM 65.1 °F - 60.8 °F 86% 29.79 in 10.0 mi South 16.1 mph - N/A   Clear
3:48 AM 66.2 °F - 60.8 °F 83% 29.89 in 10.0 mi SSE 13.8 mph - N/A   Overcast
3:58 AM 66.2 °F - 61.3 °F 84% 29.79 in 10.0 mi South 15.0 mph - N/A   Overcast
4:28 AM 66.2 °F - 60.8 °F 83% 29.89 in 10.0 mi South 9.2 mph - N/A   Overcast
4:58 AM 64.9 °F - 61.2 °F 88% 29.81 in 10.0 mi South 8.1 mph - N/A   Overcast
5:13 AM 64.4 °F - 60.8 °F 88% 29.90 in 10.0 mi South 5.8 mph - N/A   Overcast
5:28 AM 64.4 °F - 60.8 °F 88% 29.90 in 10.0 mi South 5.8 mph - N/A   Overcast
5:58 AM 65.8 °F - 61.3 °F 85% 29.82 in 10.0 mi SSE 6.9 mph - N/A   Overcast
6:03 AM 66.2 °F - 60.8 °F 83% 29.91 in 10.0 mi SSE 5.8 mph - N/A   Overcast
6:18 AM 66.2 °F - 60.8 °F 83% 29.92 in 10.0 mi SSE 5.8 mph - N/A   Overcast
6:58 AM 65.8 °F - 61.7 °F 86% 29.84 in 10.0 mi Calm Calm - N/A   Overcast
7:53 AM 66.2 °F - 60.8 °F 83% 29.95 in 10.0 mi SSE 5.8 mph - N/A   Mostly Cloudy
7:58 AM 66.4 °F - 61.7 °F 85% 29.86 in 10.0 mi SE 5.8 mph - N/A   Mostly Cloudy
8:03 AM 66.2 °F - 62.6 °F 88% 29.95 in 10.0 mi SE 4.6 mph - N/A   Mostly Cloudy
8:18 AM 66.2 °F - 62.6 °F 88% 29.96 in 10.0 mi SSE 4.6 mph - N/A   Mostly Cloudy
8:58 AM 68.0 °F - 62.4 °F 82% 29.89 in 10.0 mi Variable 4.6 mph - N/A   Overcast
9:53 AM 69.8 °F - 62.6 °F 78% 30.00 in 10.0 mi South 8.1 mph - N/A   Overcast
9:58 AM 70.2 °F - 63.0 °F 78% 29.89 in 10.0 mi SSW 6.9 mph - N/A   Overcast
10:08 AM 71.6 °F - 62.6 °F 73% 29.99 in 10.0 mi SSW 10.4 mph - N/A   Overcast
10:23 AM 71.6 °F - 62.6 °F 73% 30.00 in 10.0 mi SSW 11.5 mph - N/A   Overcast
10:58 AM 72.1 °F - 62.8 °F 72% 29.91 in 10.0 mi South 11.5 mph - N/A   Overcast
11:58 AM 72.5 °F - 62.8 °F 71% 29.89 in 10.0 mi SSW 8.1 mph - N/A   Overcast
12:58 PM 72.9 °F - 63.0 °F 71% 29.87 in 10.0 mi SSW 9.2 mph - N/A   Overcast
1:03 PM 73.4 °F - 62.6 °F 69% 29.97 in 10.0 mi SSW 10.4 mph - N/A   Overcast
1:58 PM 74.1 °F - 63.5 °F 69% 29.86 in 10.0 mi South 13.8 mph - N/A   Overcast
2:58 PM 77.2 °F - 63.0 °F 61% 29.84 in 10.0 mi SSW 12.7 mph - N/A   Partly Cloudy
3:58 PM 78.4 °F - 63.0 °F 59% 29.85 in 10.0 mi South 8.1 mph - N/A   Mostly Cloudy
4:58 PM 77.0 °F - 62.2 °F 60% 29.88 in 10.0 mi SSW 5.8 mph - N/A   Mostly Cloudy
5:58 PM 58.5 °F - 42.8 °F 56% 29.98 in 10.0 mi NNE 28.8 mph 34.5 mph N/A   Mostly Cloudy
6:58 PM 50.9 °F - 37.6 °F 60% 30.10 in 10.0 mi NNE 23.0 mph 31.1 mph N/A   Overcast
7:58 PM 46.6 °F - 34.3 °F 62% 30.15 in 10.0 mi NNE 16.1 mph - N/A   Overcast
8:58 PM 42.4 °F 33.5 °F 31.8 °F 66% 30.20 in 10.0 mi NNE 20.7 mph 25.3 mph N/A   Overcast
9:03 PM 42.8 °F 34.3 °F 32.0 °F 66% 30.25 in 10.0 mi North 19.6 mph 27.6 mph N/A   Overcast
9:38 PM 39.2 °F 28.7 °F 32.0 °F 75% 30.26 in 10.0 mi NNE 23.0 mph 29.9 mph N/A   Overcast
9:58 PM 39.4 °F 29.2 °F 30.0 °F 69% 30.24 in 10.0 mi North 21.9 mph 27.6 mph N/A   Overcast
10:53 PM 37.4 °F 27.2 °F 30.2 °F 75% 30.30 in 10.0 mi NNE 19.6 mph 29.9 mph N/A   Mostly Cloudy
10:58 PM 37.0 °F 26.7 °F 29.5 °F 74% 30.27 in 10.0 mi NNE 19.6 mph - N/A   Mostly Cloudy
11:18 PM 37.4 °F 26.9 °F 28.4 °F 70% 30.30 in 7.0 mi North 20.7 mph 28.8 mph N/A Rain Light Rain
11:38 PM 35.6 °F 24.5 °F 32.0 °F 87% 30.31 in 10.0 mi NNE 20.7 mph 24.2 mph N/A Rain Light Rain
11:52 PM 33.8 °F 22.8 °F 30.2 °F 87% 30.33 in 10.0 mi North 18.4 mph 27.6 mph N/A   Mostly Cloudy
11:58 PM 34.3 °F 22.9 °F 30.0 °F 84% 30.30 in 10.0 mi North 20.7 mph 27.6 mph 0.01 in   Overcast